This demonstration page uses our WeatherBlox Daily Observations layout. Learn more.

Left ArrowRight Arrow

Hourly Observations for August 25, 2015

Temp ( °F °C ) Dew Point ( °F °C ) Humidity (%) Winds ( mph kmh ) Pressure ( in mb ) Visibility ( mi km ) Precip ( " mm )
12:51 am 00:51 Cloudy with Nearby Thunderstorms 69 20.6 68 20 96 96 SE 12 19 30.00 1016 10 16 0.03 0.76
1:09 am 01:09 Cloudy with Thunderstorms 70 21.1 67 19.4 90 90 NE 8 13 29.97 1015 10 16 0.01 0.25
1:24 am 01:24 Cloudy with Nearby Thunderstorms 70 21.1 68 20 93 93 NNW 12 19 29.97 1015 9 14 0.03 0.76
1:32 am 01:32 Mostly Cloudy with Light Rain 70 21.1 68 20 93 93 W 14 22 29.97 1015 9 14 0.04 1.02
1:51 am 01:51 Mostly Clear with Light Rain 69 20.6 68 20 96 96 WNW 14 22 29.95 1014 10 16 0.04 1.02
2:51 am 02:51 Mostly Clear with Light Rain 69 20.6 67 19.4 93 93 N 10 17 29.96 1015 10 16 0.01 0.25
3:51 am 03:51 Mostly Clear 70 21.1 67 19.4 90 90 SW 8 13 29.95 1014 10 16 0.01 0.25
4:51 am 04:51 Clear 68 20 67 19.4 96 96 NW 5 7 29.96 1014 10 16 0.00 0.00
5:51 am 05:51 Sunny 68 20 66 18.9 93 93 NNW 5 7 29.97 1015 10 16 0.00 0.00
6:51 am 06:51 Sunny 70 21.1 66 18.9 87 87 NW 3 6 29.99 1016 10 16 0.00 0.00
7:51 am 07:51 Sunny 72 22.2 65 18.3 79 79 SSE 3 6 30.01 1016 10 16 0.00 0.00
8:51 am 08:51 Sunny 72 22.2 66 18.9 82 82 S 7 11 30.02 1017 10 16 0.00 0.00
9:51 am 09:51 Sunny 75 23.9 67 19.4 76 76 SSE 5 7 30.02 1017 10 16 0.00 0.00
10:51 am 10:51 Sunny 80 26.7 66 18.9 62 62 S 7 11 30.00 1016 10 16 0.00 0.00
11:51 am 11:51 Sunny 83 28.3 63 17.2 51 51 VRB 5 7 29.97 1015 10 16 0.00 0.00
12:51 pm 12:51 Sunny 88 31.1 64 17.8 45 45 VRB 3 6 29.93 1013 10 16 0.00 0.00
1:51 pm 13:51 Sunny 90 32.2 65 18.3 44 44 SSW 7 11 29.87 1012 10 16 0.00 0.00
2:51 pm 14:51 Sunny 93 33.9 63 17.2 37 37 VRB 5 7 29.85 1011 10 16 0.00 0.00
3:51 pm 15:51 Sunny with Nearby Thunderstorms 93 33.9 62 16.7 36 36 SSE 5 7 29.83 1010 10 16 0.00 0.00
4:18 pm 16:18 Partly Cloudy with Nearby Thunderstorms 88 31.1 60 15.6 39 39 ENE 23 37 29.74 1007 10 16 0.00 0.00
4:35 pm 16:35 Partly Cloudy 86 30 61 16.1 43 43 ENE 13 20 29.77 1008 10 16 0.00 0.03
4:49 pm 16:49 Sunny with Nearby Thunderstorms 86 30 63 17 46 46 E 16 26 29.77 1008 10 16 0.00 0.03
4:51 pm 16:51 Sunny with Nearby Thunderstorms 86 30 62 16.7 45 45 E 16 26 29.85 1011 10 16 0.00 0.03
5:33 pm 17:33 Partly Cloudy 83 28.3 62 16.7 49 49 ENE 20 31 29.80 1009 10 16 0.00 0.00
5:42 pm 17:42 Mostly Cloudy with Nearby Thunderstorms 83 28.3 62 16.7 49 49 N 24 39 29.83 1010 10 16 0.00 0.00
5:49 pm 17:49 Mostly Cloudy with Nearby Thunderstorms 79 26 61 16 54 54 WNW 23 37 29.85 1011 10 16 0.00 0.00
5:51 pm 17:51 Mostly Cloudy with Nearby Thunderstorms 78 25.6 62 16.7 58 58 WNW 24 39 29.93 1014 10 16 0.00 0.00
5:58 pm 17:58 Mostly Cloudy with Nearby Thunderstorms 77 25 63 17.2 62 62 NW 22 35 29.88 1012 10 16 0.00 0.00
6:46 pm 18:46 Partly Cloudy with Light Rain 75 24 64 18 69 69 WNW 12 19 29.91 1013 10 16 0.00 0.03
6:51 pm 18:51 Partly Cloudy with Light Rain 76 24.4 64 17.8 67 67 NW 13 20 29.96 1015 10 16 0.00 0.03
7:51 pm 19:51 Cloudy with Light Rain 74 23.3 67 19.4 79 79 WNW 8 13 30.01 1016 10 16 0.01 0.25
8:07 pm 20:07 Cloudy with Nearby Thunderstorms 74 23.3 67 19.4 79 79 NE 7 11 30.00 1016 10 16 0.00 0.03
8:22 pm 20:22 Cloudy 76 24.4 65 18.3 69 69 NE 9 15 29.97 1015 10 16 0.00 0.03
8:33 pm 20:33 Mostly Cloudy with Thunderstorms 75 23.9 65 18.3 71 71 NE 8 13 29.97 1015 10 16 0.00 0.03
8:48 pm 20:48 Partly Cloudy 75 24 64 18 69 69 SSE 6 9 30.00 1016 10 16 0.00 0.03
8:51 pm 20:51 Mostly Cloudy 75 23.9 66 18.9 74 74 S 9 15 30.04 1017 10 16 0.00 0.03
9:51 pm 21:51 Clear 76 24.4 63 17.2 64 64 ENE 6 9 30.03 1017 10 16 0.00 0.00
10:51 pm 22:51 Clear 74 23.3 64 17.8 71 71 ESE 14 22 30.03 1017 10 16 0.00 0.00
11:51 pm 23:51 Clear 74 23.3 63 17.2 69 69 ESE 10 17 30.01 1016 10 16 0.00 0.00

Powered by AerisWeather